Theta_e
320 321 321 321 320 319 319 318 317 317 317 317 317 317 318 318 318 318 316 316 323 327 327 328 330 328 328 326 325 324 323 323 322 321 321 321 320 320 319 319 318 318 317
321 321 320 320 319 319 318 317 316 316 316 316 316 317 317 318 319 319 319 317 320 325 327 329 330 331 331 330 330 328 327 326 325 323 322 321 321 320 320 320 319 318 317
321 320 320 319 319 319 317 315 315 315 314 314 314 316 316 317 317 318 318 318 318 319 324 327 329 330 331 332 332 332 331 329 327 326 325 323 322 322 321 320 320 319 318
323 319 319 319 319 318 317 315 314 313 312 312 311 312 313 313 314 315 316 317 317 319 320 324 327 328 330 331 332 332 332 332 331 328 328 327 324 323 322 322 321 320 320
325 321 318 318 318 317 316 315 314 312 311 312 312 315 314 311 312 314 314 315 316 317 317 320 321 322 326 329 330 331 331 331 332 331 330 328 328 327 326 324 324 322 321
328 325 321 319 318 316 318 313 314 315 314 313 313 313 313 313 312 311 312 315 316 314 315 316 316 318 319 325 328 329 331 331 332 331 331 330 329 328 328 327 326 325 324
329 327 326 323 322 319 318 317 316 314 313 313 311 307 310 310 310 311 311 311 311 313 313 314 315 317 318 322 324 327 329 330 330 330 330 330 330 330 329 329 328 326 324
329 327 326 325 324 320 317 317 315 313 313 313 312 306 305 309 309 312 311 311 309 312 311 312 313 315 315 315 316 322 325 327 327 327 328 329 328 327 328 329 329 330 329
328 327 326 325 324 321 320 319 317 315 313 313 313 311 305 303 308 314 310 310 310 308 309 309 310 311 311 312 315 317 320 321 322 323 324 324 323 324 325 325 324 324 326
328 327 326 325 324 322 320 319 319 317 315 313 312 311 312 310 306 306 310 309 309 312 309 305 306 308 309 310 310 309 311 315 317 318 319 319 319 320 320 320 320 320 321
325 326 325 325 324 323 321 320 319 317 317 315 312 310 307 307 306 303 303 305 308 308 307 306 310 310 308 307 308 307 309 311 312 313 314 315 316 317 317 318 318 318 319
321 320 321 321 321 320 319 318 317 317 316 315 314 313 311 307 307 305 303 304 304 307 309 309 306 308 308 305 305 304 307 310 311 312 312 312 313 314 315 316 316 317 317
308 307 308 306 306 306 307 307 308 308 308 308 309 311 311 309 310 309 306 304 302 305 305 307 307 307 307 305 305 302 303 306 309 310 310 311 312 311 312 313 314 314 314
300 301 301 301 302 302 302 302 302 302 302 301 302 302 307 308 308 308 306 304 300 299 300 299 300 301 303 307 306 301 304 303 306 308 309 310 311 310 309 310 311 311 311
298 297 297 297 297 298 298 298 298 298 298 298 298 299 299 301 302 304 305 301 300 295 295 297 298 299 300 302 303 304 304 302 305 306 307 307 308 307 307 307 307 308 308
295 294 294 294 294 295 295 295 294 295 295 295 296 295 295 297 298 298 299 300 299 297 293 297 298 300 301 301 300 300 301 298 300 303 304 304 303 304 303 304 304 304 305
293 292 293 292 292 292 292 292 292 293 292 292 292 292 293 294 295 296 296 296 296 297 293 295 297 298 298 298 299 298 298 299 298 298 299 299 299 299 299 299 299 300 301
291 291 290 290 290 290 290 290 290 291 290 290 290 291 291 293 292 293 293 292 293 293 292 290 293 294 293 295 297 294 296 295 294 295 296 297 297 297 296 296 296 297 297
289 288 288 288 288 289 288 289 290 288 288 288 289 288 289 289 288 288 289 289 290 290 290 289 289 292 292 293 293 293 290 291 290 291 294 293 292 292 292 293 294 295 297
287 286 286 286 287 287 287 287 288 287 287 287 287 287 287 287 286 287 287 288 288 287 287 286 287 287 289 291 288 287 288 289 288 286 288 288 289 289 290 292 293 293 292
285 285 285 284 284 285 286 286 286 285 284 285 284 284 285 285 287 288 287 287 286 285 285 285 284 285 286 287 287 289 288 289 285 284 284 284 284 285 286 291 290 291 292
283 283 282 282 282 284 287 288 288 284 284 283 283 283 283 283 286 287 288 288 288 285 285 285 284 284 284 285 287 286 285 284 283 283 282 282 284 284 285 287 291 291 291
281 281 281 281 281 281 286 288 288 284 283 283 282 282 283 284 285 285 287 288 287 287 288 285 283 283 283 285 285 283 283 284 281 282 281 278 281 279 282 287 290 291 290
280 280 280 280 280 281 286 287 287 283 282 282 283 284 284 284 285 285 286 285 285 285 285 285 285 285 285 286 285 284 283 281 282 282 282 276 278 276 279 285 289 289 287
278 277 279 277 275 278 284 286 286 282 282 282 282 284 284 284 286 288 285 283 282 283 287 288 288 287 285 286 287 283 280 279 277 279 281 278 277 275 275 275 279 286 285
278 278 279 276 275 275 282 285 286 282 279 281 282 284 285 285 287 287 284 283 283 283 282 283 279 280 280 279 281 279 282 278 278 276 280 277 277 277 273 274 274 274 276
Wind_Speed
4 4 3 3 3 2 3 2 2 2 2 3 3 3 4 4 5 2 2 9 10 13 13 13 13 13 13 13 13 14 14 14 14 14 15 16 15 16 16 16 16 16 16
4 3 3 3 2 3 2 3 3 2 3 2 4 4 5 5 5 5 4 4 11 13 16 17 17 18 17 18 17 17 17 17 17 17 18 18 18 19 19 19 20 20 20
4 4 3 3 3 3 3 2 2 1 2 2 4 4 5 6 5 6 5 4 5 12 15 19 20 20 21 21 21 21 21 22 23 23 24 25 24 24 24 24 25 24 24
4 3 3 3 3 2 3 2 2 3 4 3 3 5 5 5 6 7 6 6 5 6 9 17 20 22 22 23 24 25 24 25 25 25 25 25 26 27 27 27 27 27 28
5 3 2 3 2 1 2 3 3 3 3 3 4 4 5 5 6 6 8 9 9 8 7 11 15 17 21 24 26 27 27 28 26 25 25 26 27 28 28 29 30 30 31
4 4 3 3 3 3 4 1 2 2 3 3 4 7 6 7 7 7 10 9 9 9 9 10 8 9 14 22 26 27 28 29 28 27 26 26 27 30 31 31 33 32 32
5 3 2 4 4 4 4 4 2 2 3 2 2 4 4 6 7 7 5 5 7 8 8 7 7 7 8 19 23 26 27 28 29 29 29 28 27 27 29 32 35 36 35
5 5 5 4 4 3 3 3 3 2 2 3 3 2 4 5 3 5 5 6 8 7 6 8 8 10 9 7 11 22 25 26 28 30 30 28 28 30 30 30 32 33 37
5 5 5 4 4 3 3 3 4 5 4 2 5 3 3 4 4 3 5 5 6 4 5 6 8 9 9 8 11 14 20 24 28 29 29 30 31 31 30 29 30 31 32
5 4 4 3 4 3 4 4 4 5 3 5 1 3 5 3 5 10 1 5 5 7 6 4 6 8 9 8 10 13 15 20 23 26 28 29 29 28 28 28 29 30 31
1 1 2 3 3 2 3 4 4 4 3 3 3 1 3 3 4 6 13 9 9 7 5 5 8 8 9 8 9 10 16 21 23 25 24 25 25 26 25 26 27 28 29
4 5 4 3 3 2 3 2 2 3 4 3 3 4 5 6 8 6 8 15 15 14 9 7 6 7 7 7 10 15 17 21 23 22 22 23 24 25 25 25 26 27 28
3 5 5 6 4 5 5 5 5 5 5 4 5 6 5 5 5 6 8 13 14 13 10 7 7 7 6 6 8 13 13 17 20 22 22 22 23 24 23 24 25 26 27
4 6 6 6 6 6 6 6 4 4 5 4 6 5 5 6 6 6 8 10 16 15 12 11 4 5 5 6 8 12 9 13 18 22 22 23 21 22 22 23 24 24 25
4 6 6 6 6 7 6 6 4 5 5 4 5 5 4 4 4 5 6 4 8 17 23 7 6 3 4 5 7 9 9 13 18 20 22 22 23 22 22 21 22 23 25
6 6 6 6 6 6 6 6 5 4 6 4 4 6 5 4 6 4 5 6 5 9 18 12 12 11 10 9 7 8 10 13 16 20 23 21 21 20 20 20 20 22 25
6 6 6 6 6 6 6 5 6 6 6 6 6 5 8 6 6 6 6 6 7 8 13 21 12 13 16 14 12 6 8 10 8 16 18 18 18 17 17 17 18 19 25
6 6 6 6 6 6 6 6 6 5 6 7 8 8 10 7 9 8 6 8 9 9 11 20 18 14 14 13 12 13 10 7 8 12 15 16 17 16 16 15 15 19 24
6 6 6 6 5 5 6 5 4 5 5 6 7 8 11 10 10 8 8 9 9 11 12 12 17 13 15 11 14 9 6 8 6 12 14 13 12 13 14 15 15 14 11
5 5 5 6 6 6 6 5 6 6 7 8 9 9 10 10 11 12 10 13 12 13 12 11 13 14 12 13 7 9 10 5 6 1 3 5 8 12 15 16 11 17 18
5 5 5 5 5 5 5 8 7 7 7 8 8 9 9 11 16 17 11 13 13 11 11 11 13 12 13 12 12 11 10 9 2 1 2 2 2 3 6 14 16 16 18
5 4 5 6 7 6 14 15 11 6 6 8 10 9 8 8 12 20 20 20 18 14 14 11 13 13 18 12 9 8 9 9 6 1 1 4 4 5 5 4 17 18 17
4 5 5 5 6 6 13 15 15 6 7 8 9 10 12 9 14 14 19 20 18 18 19 15 16 15 17 13 12 13 11 8 0 1 2 5 5 7 7 8 17 18 26
4 4 5 5 6 6 15 17 15 6 5 6 7 11 14 14 12 16 13 15 13 12 13 11 13 14 12 12 10 8 5 3 4 5 4 3 5 7 9 10 26 26 26
2 3 4 4 5 8 15 17 15 5 6 7 6 10 11 12 18 19 17 15 15 13 10 15 16 12 14 17 10 1 2 3 3 3 5 3 3 7 8 10 10 24 23
4 3 7 4 6 8 14 16 14 5 6 7 7 9 13 18 19 24 14 13 13 12 11 3 4 7 10 10 16 8 2 3 3 2 3 3 2 2 4 4 7 8 9
Wind_Direction
167 165 174 169 185 171 168 194 213 240 284 289 292 289 295 296 294 281 244 238 235 236 248 255 254 256 257 253 252 256 257 257 254 249 246 248 247 243 243 234 238 235 232
166 161 155 166 184 190 190 200 220 234 261 284 284 268 268 273 272 278 271 260 238 243 249 256 260 260 263 253 247 246 246 244 246 250 247 247 250 249 244 242 244 239 238
183 169 175 185 207 206 202 207 230 232 274 276 276 278 269 262 262 263 264 265 254 246 247 253 258 260 262 265 262 252 249 241 237 236 233 230 230 233 234 233 234 235 236
163 173 177 207 218 209 197 207 248 277 272 254 262 266 258 259 262 261 256 249 244 252 253 252 254 258 263 264 265 267 265 259 255 246 241 239 238 238 239 240 235 234 233
189 169 196 206 183 202 229 217 247 205 254 258 263 276 271 271 265 267 257 254 251 250 249 254 248 251 256 263 266 268 270 272 269 261 256 248 244 239 241 238 238 236 233
199 189 194 217 212 214 237 255 258 234 252 292 290 282 279 275 261 251 257 262 255 247 246 248 250 251 248 256 262 265 269 271 273 272 269 259 254 250 244 245 240 236 232
219 209 222 214 226 219 220 212 231 262 281 218 299 306 275 250 261 259 277 263 262 254 251 244 245 250 260 259 263 266 269 272 275 277 276 275 272 264 259 256 251 248 243
210 211 214 231 226 224 222 232 229 284 273 203 249 254 313 309 304 255 244 249 250 255 255 251 247 252 252 251 255 263 270 276 279 282 283 284 284 282 277 274 271 263 252
211 204 220 230 246 227 251 232 217 213 245 265 210 232 294 259 316 288 294 251 270 264 258 257 259 258 255 252 257 255 259 268 279 283 284 288 292 292 292 292 293 290 285
220 216 224 227 243 234 233 238 233 226 197 255 269 233 255 295 309 308 302 300 267 284 276 265 264 268 264 264 257 256 260 264 269 274 279 283 287 289 292 294 293 291 289
257 269 239 268 280 268 261 257 262 251 230 262 224 227 244 249 235 254 300 302 296 277 259 254 266 267 262 253 259 252 250 257 259 262 269 273 279 282 286 291 291 292 290
57 42 45 26 5 358 349 332 306 291 292 276 288 288 287 294 298 290 291 303 301 306 299 276 248 258 257 253 257 261 259 257 264 270 268 270 272 279 283 286 287 290 290
53 29 37 28 21 9 15 12 1 347 328 321 310 302 298 290 297 296 298 298 297 300 293 269 258 256 256 252 257 259 260 264 270 273 271 270 273 276 277 281 284 287 288
59 38 48 42 27 26 21 18 16 357 355 344 336 321 308 304 303 296 291 300 307 301 297 289 247 256 261 262 261 268 277 272 270 274 277 277 281 283 284 283 287 289 288
63 58 49 47 32 29 24 13 18 360 3 352 332 326 312 302 294 297 293 296 302 306 300 308 298 263 274 278 276 276 277 275 271 277 280 282 282 285 282 288 288 287 286
58 53 46 43 37 29 21 18 11 359 3 342 336 329 317 304 302 284 282 286 266 279 290 305 303 306 310 302 271 261 268 267 272 278 281 286 290 290 291 291 293 295 294
54 51 42 36 30 23 14 11 4 358 349 329 320 312 303 297 299 298 295 286 279 269 275 291 289 298 299 301 299 271 267 271 274 267 276 290 291 291 292 295 296 298 299
56 50 39 36 21 13 4 358 340 337 330 323 314 312 305 307 300 298 296 293 288 284 278 284 298 302 297 300 296 295 283 261 268 273 281 285 287 293 295 296 299 304 303
56 41 36 24 355 347 339 333 326 317 311 305 303 307 306 309 303 298 291 292 295 295 290 286 291 295 297 303 296 287 281 282 262 270 282 295 307 308 301 295 296 300 69
54 36 22 358 337 335 320 319 323 316 317 314 309 305 302 299 297 302 297 301 300 299 294 285 287 295 297 301 283 294 292 266 270 291 308 337 327 315 304 278 279 97 90
38 26 2 336 330 333 328 331 322 306 299 302 297 291 291 289 291 294 304 310 308 299 295 291 289 293 290 296 294 298 288 298 294 302 340 1 338 335 338 81 97 100 92
26 21 2 344 334 334 325 324 320 299 294 294 301 306 301 298 314 319 316 310 303 301 298 296 293 289 291 298 299 300 302 297 291 71 77 31 14 33 15 56 100 93 89
359 345 333 318 301 290 313 319 320 309 303 303 308 317 325 322 324 318 312 311 308 296 290 293 287 286 291 297 294 296 291 281 106 40 82 42 18 41 14 67 74 84 88
340 323 305 291 294 303 317 320 318 293 284 290 302 318 320 317 314 313 312 312 311 295 281 276 272 281 283 292 278 279 289 83 73 52 45 70 18 45 32 53 79 83 83
286 257 261 286 286 296 309 317 323 306 295 304 304 317 316 309 306 312 316 310 302 296 292 306 313 9 10 10 2 357 28 99 62 39 30 76 33 73 48 36 29 70 76
274 293 312 284 263 279 306 314 319 289 294 303 298 308 314 317 312 318 308 298 301 313 303 353 3 8 7 7 23 23 5 85 84 72 31 83 158 101 74 23 34 35 43